TimeCST,TemperatureF,Dew PointF,Humidity,Sea Level PressureIn,VisibilityMPH,Wind Direction,Wind SpeedMPH,Gust SpeedMPH,PrecipitationIn,Events,Conditions,WindDirDegrees,DateUTC
12:53 AM,17.1,12.9,84,29.81,6.0,NNW,19.6,26.5,0.00,,Overcast,340,2012-12-16 06:53:00
1:53 AM,19.4,14.0,80,29.76,10.0,NNW,16.1,-,N/A,,Overcast,340,2012-12-16 07:53:00
2:53 AM,19.9,15.1,81,29.81,10.0,North,16.1,-,0.00,,Overcast,350,2012-12-16 08:53:00
3:53 AM,19.9,15.1,81,29.82,10.0,North,16.1,-,N/A,,Overcast,360,2012-12-16 09:53:00
4:53 AM,21.0,16.0,81,29.84,10.0,North,16.1,-,N/A,,Overcast,350,2012-12-16 10:53:00
5:53 AM,21.9,18.0,85,29.85,10.0,NNW,12.7,-,N/A,,Overcast,340,2012-12-16 11:53:00
6:53 AM,23.0,18.0,81,29.86,10.0,North,12.7,-,N/A,,Overcast,350,2012-12-16 12:53:00
7:53 AM,24.1,18.0,77,29.86,10.0,North,16.1,-,N/A,,Overcast,360,2012-12-16 13:53:00
8:53 AM,24.1,18.0,77,29.86,10.0,North,17.3,-,N/A,,Overcast,360,2012-12-16 14:53:00
9:53 AM,24.1,18.0,77,29.87,10.0,North,17.3,-,N/A,,Overcast,350,2012-12-16 15:53:00
10:53 AM,24.1,18.0,77,29.88,10.0,North,12.7,-,N/A,,Overcast,350,2012-12-16 16:53:00
11:53 AM,24.1,18.0,77,29.88,9.0,NNW,11.5,-,N/A,,Overcast,340,2012-12-16 17:53:00
12:53 PM,24.1,18.0,77,29.86,10.0,North,9.2,-,N/A,,Overcast,350,2012-12-16 18:53:00
1:53 PM,24.1,18.0,77,29.85,10.0,North,10.4,-,N/A,,Overcast,10,2012-12-16 19:53:00
2:53 PM,24.1,19.0,81,29.85,10.0,NNW,9.2,-,N/A,,Overcast,340,2012-12-16 20:53:00
3:53 PM,24.1,18.0,77,29.86,10.0,North,8.1,-,N/A,,Overcast,360,2012-12-16 21:53:00
4:53 PM,23.0,18.0,81,29.86,10.0,North,12.7,-,N/A,,Overcast,360,2012-12-16 22:53:00
5:53 PM,21.9,17.1,82,29.87,10.0,North,9.2,-,N/A,,Overcast,350,2012-12-16 23:53:00
6:53 PM,21.9,17.1,82,29.89,10.0,North,10.4,-,N/A,,Overcast,350,2012-12-17 00:53:00
7:53 PM,21.9,17.1,82,29.89,8.0,North,6.9,-,0.00,Snow,Light Snow,350,2012-12-17 01:53:00
8:53 PM,21.0,17.1,85,29.89,10.0,North,8.1,-,0.00,,Overcast,10,2012-12-17 02:53:00
9:53 PM,19.9,16.0,85,29.88,10.0,North,8.1,-,N/A,,Overcast,10,2012-12-17 03:53:00
10:53 PM,19.0,15.1,85,29.88,10.0,Calm,Calm,-,N/A,,Overcast,0,2012-12-17 04:53:00
11:53 PM,19.9,16.0,85,29.88,10.0,NW,8.1,-,N/A,,Overcast,320,2012-12-17 05:53:00